FW9692 Weather Reports


Display with metric or nautical units.
time (UTC)temp
F
wind
direction
speed
MPH
gust
MPH
rain 1hr
in
rain 24hr
in
rain mn
in
humidity
%
barometer
mb
20260510213103 75 43 31.0 41.0 0.00 0.00 0.00 50 1002.5
20260510211624 76 41 32.0 42.0 0.00 0.00 0.00 48 1002.6
20260510210046 76 53 29.0 42.0 0.00 0.00 0.00 48 1002.7
20260510204545 78 36 30.0 39.0 0.00 0.00 0.00 44 1002.3
20260510203043 79 34 28.0 37.0 0.00 0.00 0.00 43 1002.1
20260510201544 79 38 35.0 44.0 0.00 0.00 0.00 41 1001.9
20260510200051 79 23 35.0 47.0 0.00 0.00 0.00 41 1002.1
20260510194547 80 32 33.0 47.0 0.00 0.00 0.00 40 1002.0
20260510193042 80 17 29.0 40.0 0.00 0.00 0.00 40 1002.0
20260510191600 79 15 28.0 39.0 0.00 0.00 0.00 40 1001.8
20260510190042 79 11 30.0 38.0 0.00 0.00 0.00 40 1001.8
20260510184532 78 23 31.0 41.0 0.00 0.00 0.00 41 1001.6
20260510183032 77 27 33.0 42.0 0.00 0.00 0.00 42 1001.8
20260510181531 76 333 34.0 45.0 0.00 0.00 0.00 44 1001.9
20260510180019 76 347 33.0 42.0 0.00 0.00 0.00 43 1001.9
20260510174518 75 344 30.0 42.0 0.00 0.00 0.00 44 1001.9
20260510173016 75 351 35.0 44.0 0.00 0.00 0.00 43 1001.6
20260510171518 75 10 30.0 44.0 0.00 0.00 0.00 44 1001.4
20260510170038 74 351 32.0 45.0 0.00 0.00 0.00 46 1001.1
20260510164538 74 344 35.0 47.0 0.00 0.00 0.00 46 1001.2
20260510163035 74 338 37.0 46.0 0.00 0.00 0.00 45 1001.1
20260510161534 74 324 36.0 48.0 0.00 0.00 0.00 43 1001.0
20260510160020 74 341 38.0 46.0 0.00 0.00 0.00 44 1000.7
20260510154518 74 326 40.0 51.0 0.00 0.00 0.00 45 1000.6
20260510153018 76 347 31.0 46.0 0.00 0.00 0.00 41 1000.4
20260510151511 78 348 30.0 38.0 0.00 0.00 0.00 25 999.8
20260510150013 79 333 28.0 39.0 0.00 0.00 0.00 22 999.6
20260510144519 80 351 25.0 31.0 0.00 0.00 0.00 18 999.2
20260510143016 78 334 21.0 26.0 0.00 0.00 0.00 22 999.0
20260510141505 79 313 14.0 18.0 0.00 0.00 0.00 23 998.6
20260510140010 78 310 12.0 18.0 0.00 0.00 0.00 24 998.1
20260510134508 78 13 10.0 20.0 0.00 0.00 0.00 25 997.7
20260510133004 76 289 16.0 32.0 0.00 0.00 0.00 26 997.4
20260510131559 74 234 17.0 21.0 0.00 0.00 0.00 29 996.5
20260510130101 72 223 17.0 21.0 0.00 0.00 0.00 31 996.4
20260510124612 71 225 16.0 20.0 0.00 0.00 0.00 32 996.2
20260510123058 72 227 19.0 23.0 0.00 0.00 0.00 31 996.0
20260510121555 72 227 19.0 22.0 0.00 0.00 0.00 30 995.9
20260510120053 72 234 19.0 22.0 0.00 0.00 0.00 29 995.9
20260510114551 72 235 18.0 21.0 0.00 0.00 0.00 29 995.8
20260510113051 71 236 16.0 20.0 0.00 0.00 0.00 30 995.7
20260510111549 71 246 16.0 20.0 0.00 0.00 0.00 28 995.7
20260510110044 71 238 17.0 20.0 0.00 0.00 0.00 28 995.7
20260510104543 72 235 17.0 22.0 0.00 0.00 0.00 27 995.7
20260510103040 71 242 17.0 20.0 0.00 0.00 0.00 28 995.5
20260510101541 71 236 16.0 20.0 0.00 0.00 0.00 27 995.5
20260510100047 70 230 16.0 19.0 0.00 0.00 0.00 27 995.3
20260510094559 71 232 17.0 19.0 0.00 0.00 0.00 24 995.2
20260510093102 72 227 15.0 19.0 0.00 0.00 0.00 23 995.1
20260510091547 73 216 16.0 19.0 0.00 0.00 0.00 21 995.0
20260510090051 73 223 16.0 19.0 0.00 0.00 0.00 22 995.1
20260510084551 73 221 16.0 20.0 0.00 0.00 0.00 20 995.1
20260510083051 72 216 16.0 20.0 0.00 0.00 0.00 22 995.2
20260510081547 70 205 15.0 19.0 0.00 0.00 0.00 24 995.3
20260510080042 71 214 15.0 19.0 0.00 0.00 0.00 24 995.3
20260510074543 72 221 16.0 19.0 0.00 0.00 0.00 24 995.4
20260510073046 72 217 17.0 20.0 0.00 0.00 0.00 24 995.5
20260510071548 73 211 15.0 18.0 0.00 0.00 0.00 23 995.5
20260510070035 74 207 16.0 19.0 0.00 0.00 0.00 22 995.7
20260510064533 75 205 15.0 18.0 0.00 0.00 0.00 22 995.6
20260510063033 75 208 15.0 20.0 0.00 0.00 0.00 22 995.9
20260510061533 75 192 14.0 17.0 0.00 0.00 0.00 22 995.9
20260510060030 75 192 14.0 18.0 0.00 0.00 0.00 22 996.0
20260510054532 77 192 16.0 22.0 0.00 0.00 0.00 21 996.1
20260510053048 77 175 17.0 22.0 0.00 0.00 0.00 20 996.0
20260510051529 78 178 20.0 25.0 0.00 0.00 0.00 19 996.0
20260510050028 79 175 20.0 25.0 0.00 0.00 0.00 19 996.2
20260510044528 79 167 21.0 26.0 0.00 0.00 0.00 18 996.2
20260510043039 80 180 21.0 26.0 0.00 0.00 0.00 17 996.2
20260510041529 82 167 20.0 27.0 0.00 0.00 0.00 15 996.2
20260510040040 82 170 20.0 24.0 0.00 0.00 0.00 14 996.2
20260510034534 83 186 18.0 22.0 0.00 0.00 0.00 14 996.1
20260510033033 84 170 20.0 22.0 0.00 0.00 0.00 13 995.9
20260510031534 84 167 19.0 22.0 0.00 0.00 0.00 13 995.8
20260510030018 85 171 17.0 23.0 0.00 0.00 0.00 13 995.7
20260510024518 85 163 17.0 20.0 0.00 0.00 0.00 13 995.6
20260510023016 86 169 13.0 19.0 0.00 0.00 0.00 12 995.3
20260510021531 87 154 14.0 17.0 0.00 0.00 0.00 11 995.3
20260510020016 87 153 13.0 17.0 0.00 0.00 0.00 12 995.1
20260510014521 89 159 13.0 17.0 0.00 0.00 0.00 10 995.0
20260510013024 89 151 14.0 18.0 0.00 0.00 0.00 10 994.9
20260510011522 90 144 17.0 20.0 0.00 0.00 0.00 10 994.7
20260510010019 91 132 12.0 19.0 0.00 0.00 0.00 9 994.7
20260510004526 93 203 7.0 16.0 0.00 0.00 0.00 8 994.8
20260510003026 93 187 8.0 16.0 0.00 0.00 0.00 8 994.8
20260510001522 93 193 5.0 20.0 0.00 0.00 0.00 8 994.8
20260510000028 93 177 11.0 16.0 0.00 0.00 0.00 8 994.9
20260509234519 93 173 10.0 21.0 0.00 0.00 0.00 8 994.9
20260509233016 93 198 10.0 18.0 0.00 0.00 0.00 8 995.1
20260509231515 93 243 9.0 16.0 0.00 0.00 0.00 8 995.2
20260509230015 93 221 8.0 14.0 0.00 0.00 0.00 8 995.3
20260509224512 93 210 7.0 15.0 0.00 0.00 0.00 8 995.5
20260509223016 93 213 11.0 23.0 0.00 0.00 0.00 8 995.6
20260509221515 92 301 3.0 15.0 0.00 0.00 0.00 8 995.8
20260509220017 92 219 9.0 16.0 0.00 0.00 0.00 8 995.9